Date String (YYYY-MM-DD hh:mm:ss) UTC,Instrument flags,Ambient pressure (hPa),Sample flow (lpm),Bypass flow (lpm),Sample temperature (°C),Ambient temperature (°C),ASC tube jacket temperature (°C),LED temperature (°C),Box temperature (°C),Sample RH (%),Span deviation,Mass concentration (μg/m³),Mass concentration (μg/m³),Mass concentration (μg/m³)
DateTimeUTC,F1_M11,P_M11,Q1_M11,Q2_M11,T1_M11,T2_M11,T3_M11,T4_M11,T5_M11,U1_M11,ZSPAN_M11,X2_M11,X0_M11,X1_M11
2022-10-27 10:00:00,,0820.3,4.99,0.00,26.1,24.4,00.0,34.9,28.0,15.0,0000.0,0002.90,0005.58,0002.23
2022-10-27 10:01:00,,0820.3,4.99,0.00,26.1,24.3,00.0,34.9,28.0,15.0,0000.0,0002.85,0006.14,0002.20
2022-10-27 10:02:00,,0820.2,5.00,0.00,26.1,24.2,00.0,34.9,27.9,15.0,0000.0,0002.81,0007.98,0002.17
2022-10-27 10:03:00,,0820.3,5.02,0.00,26.0,24.1,00.0,34.9,27.8,15.1,0000.0,0002.80,0008.15,0002.13
2022-10-27 10:04:00,,0820.3,5.00,0.00,26.0,24.1,00.0,34.9,27.8,15.1,0000.0,0002.74,0007.91,0002.09
2022-10-27 10:05:00,,0820.3,4.99,0.00,26.0,24.0,00.0,34.9,27.8,15.1,0000.0,0002.75,0008.27,0002.08
2022-10-27 10:06:00,,0820.3,4.99,0.00,26.0,24.0,00.0,34.9,27.8,15.0,0000.0,0002.71,0008.80,0002.05
2022-10-27 10:07:00,,0820.2,5.00,0.00,25.9,24.0,00.0,34.8,27.7,15.0,0000.0,0002.73,0008.87,0002.05
2022-10-27 10:08:00,,0820.3,4.99,0.00,25.9,24.0,00.0,34.8,27.8,15.1,0000.0,0002.71,0008.84,0002.04
2022-10-27 10:09:00,,0820.3,5.00,0.00,25.9,24.0,00.0,34.8,27.7,15.2,0000.0,0002.65,0008.75,0002.03
2022-10-27 10:10:00,,0820.3,5.01,0.00,25.9,24.1,00.0,34.8,27.7,15.2,0000.0,0002.66,0008.82,0002.04
2022-10-27 10:11:00,,0820.3,5.00,0.00,25.9,24.1,00.0,34.8,27.7,15.2,0000.0,0002.69,0008.68,0002.03
2022-10-27 10:12:00,,0820.4,5.00,0.00,25.9,24.2,00.0,34.8,27.7,15.2,0000.0,0002.69,0008.73,0002.02
2022-10-27 10:13:00,,0820.4,4.99,0.00,25.9,24.2,00.0,34.8,27.7,15.3,0000.0,0002.72,0007.60,0002.02
2022-10-27 10:14:00,,0820.4,5.00,0.00,25.9,24.2,00.0,34.8,27.7,15.3,0000.0,0002.72,0007.57,0002.02
2022-10-27 10:15:00,,0820.4,4.99,0.00,25.9,24.2,00.0,34.7,27.8,15.3,0000.0,0002.74,0007.61,0002.03
2022-10-27 10:16:00,,0820.4,5.00,0.00,25.9,24.3,00.0,34.7,27.8,15.2,0000.0,0002.71,0007.32,0002.03
2022-10-27 10:17:00,,0820.4,5.00,0.00,25.9,24.3,00.0,34.7,27.8,15.3,0000.0,0002.73,0006.24,0002.01
2022-10-27 10:18:00,,0820.4,5.00,0.00,25.9,24.4,00.0,34.7,27.8,15.3,0000.0,0002.71,0006.29,0001.99
2022-10-27 10:19:00,,0820.5,5.00,0.00,25.9,24.4,00.0,34.7,27.8,15.2,0000.0,0002.71,0006.24,0001.99
2022-10-27 10:20:00,,0820.5,5.00,0.00,25.9,24.4,00.0,34.7,27.8,15.3,0000.0,0002.71,0006.43,0001.99
2022-10-27 10:21:00,,0820.5,5.00,0.00,25.9,24.4,00.0,34.8,27.8,15.4,0000.0,0002.67,0006.59,0001.98
2022-10-27 10:22:00,,0820.6,5.00,0.00,25.9,24.4,00.0,34.8,27.9,15.5,0000.0,0002.65,0006.39,0001.99
2022-10-27 10:23:00,,0820.6,5.00,0.00,25.9,24.4,00.0,34.7,27.9,15.6,0000.0,0002.65,0005.51,0001.99
2022-10-27 10:24:00,,0820.6,5.00,0.00,25.9,24.4,00.0,34.7,27.9,15.7,0000.0,0002.57,0005.33,0001.99
2022-10-27 10:25:00,,0820.6,5.00,0.00,25.9,24.4,00.0,34.7,27.9,15.7,0000.0,0002.52,0004.74,0001.98
2022-10-27 10:26:00,,0820.6,5.00,0.00,26.0,24.4,00.0,34.7,27.9,15.8,0000.0,0002.49,0004.73,0001.97
2022-10-27 10:27:00,,0820.6,5.00,0.00,25.9,24.3,00.0,34.7,27.8,16.2,0000.0,0002.47,0004.77,0001.97
2022-10-27 10:28:00,,0820.6,4.99,0.00,25.9,24.3,00.0,34.7,27.8,16.4,0000.0,0002.42,0004.64,0001.98
2022-10-27 10:29:00,,0820.6,5.00,0.00,25.9,24.3,00.0,34.7,27.8,16.5,0000.0,0002.38,0004.35,0001.99
2022-10-27 10:30:00,,0820.5,5.00,0.00,25.9,24.3,00.0,34.7,27.8,16.5,0000.0,0002.37,0004.29,0001.99
2022-10-27 10:31:00,,0820.5,5.00,0.00,25.9,24.3,00.0,34.7,27.8,16.5,0000.0,0002.37,0004.00,0002.00
2022-10-27 10:32:00,,0820.5,5.02,0.00,25.9,24.3,00.0,34.7,27.8,16.7,0000.0,0002.43,0004.13,0002.02
2022-10-27 10:33:00,,0820.5,5.00,0.00,25.9,24.3,00.0,34.7,27.9,16.9,0000.0,0002.45,0004.23,0002.03
2022-10-27 10:34:00,,0820.5,5.00,0.00,25.9,24.3,00.0,34.7,27.8,17.2,0000.0,0002.47,0004.26,0002.03
2022-10-27 10:35:00,,0820.6,5.00,0.00,25.9,24.3,00.0,34.7,27.8,17.2,0000.0,0002.49,0004.23,0002.04
2022-10-27 10:36:00,,0820.6,5.00,0.00,25.9,24.3,00.0,34.7,27.7,17.1,0000.0,0002.52,0004.28,0002.06
2022-10-27 10:37:00,,0820.6,5.00,0.00,25.9,24.3,00.0,34.7,27.8,17.0,0000.0,0002.55,0004.24,0002.08
2022-10-27 10:38:00,,0820.6,4.99,0.00,25.9,24.3,00.0,34.7,27.8,17.1,0000.0,0002.60,0004.27,0002.10
2022-10-27 10:39:00,,0820.6,5.00,0.00,25.9,24.3,00.0,34.7,27.8,17.2,0000.0,0002.63,0004.83,0002.10
2022-10-27 10:40:00,,0820.6,4.99,0.00,25.9,24.3,00.0,34.7,27.8,17.2,0000.0,0002.65,0005.98,0002.10
2022-10-27 10:41:00,,0820.5,5.02,0.00,25.9,24.3,00.0,34.7,27.8,17.2,0000.0,0002.66,0006.10,0002.09
2022-10-27 10:42:00,,0820.5,5.00,0.00,25.9,24.3,00.0,34.7,27.8,17.1,0000.0,0002.68,0006.90,0002.10
2022-10-27 10:43:00,,0820.6,5.00,0.00,25.9,24.3,00.0,34.7,27.8,17.1,0000.0,0002.65,0006.67,0002.09
2022-10-27 10:44:00,,0820.6,4.99,0.00,25.9,24.3,00.0,34.7,27.8,17.1,0000.0,0002.65,0006.58,0002.09
2022-10-27 10:45:00,,0820.6,4.99,0.00,25.9,24.3,00.0,34.7,27.8,17.1,0000.0,0002.64,0006.58,0002.10
2022-10-27 10:46:00,,0820.6,5.00,0.00,25.9,24.3,00.0,34.7,27.8,17.1,0000.0,0002.64,0007.41,0002.10
2022-10-27 10:47:00,,0820.6,5.00,0.00,25.9,24.3,00.0,34.7,27.8,17.1,0000.0,0002.68,0007.75,0002.08
2022-10-27 10:48:00,,0820.5,5.00,0.00,25.9,24.3,00.0,34.7,27.8,17.2,0000.0,0002.70,0007.82,0002.07
2022-10-27 10:49:00,,0820.6,5.00,0.00,25.9,24.3,00.0,34.7,27.8,17.3,0000.0,0002.69,0007.80,0002.06
2022-10-27 10:50:00,,0820.5,5.00,0.00,25.9,24.3,00.0,34.7,27.8,17.4,0000.0,0002.69,0007.83,0002.07
2022-10-27 10:51:00,,0820.5,5.01,0.00,25.9,24.3,00.0,34.7,27.8,17.5,0000.0,0002.73,0007.39,0002.07
2022-10-27 10:52:00,,0820.6,5.01,0.00,25.9,24.3,00.0,34.7,27.8,17.6,0000.0,0002.75,0007.39,0002.07
2022-10-27 10:53:00,,0820.5,5.00,0.00,25.9,24.3,00.0,34.7,27.8,17.6,0000.0,0002.74,0006.83,0002.08
2022-10-27 10:54:00,,0820.5,5.00,0.00,25.9,24.2,00.0,34.7,27.7,17.6,0000.0,0002.71,0006.38,0002.07
2022-10-27 10:55:00,,0820.5,5.00,0.00,25.9,24.2,00.0,34.7,27.7,17.6,0000.0,0002.69,0006.43,0002.07
2022-10-27 10:56:00,,0820.5,5.01,0.00,25.9,24.3,00.0,34.7,27.7,17.7,0000.0,0002.69,0006.45,0002.07
2022-10-27 10:57:00,,0820.5,5.01,0.00,25.9,24.2,00.0,34.7,27.8,17.8,0000.0,0002.72,0005.61,0002.08
2022-10-27 10:58:00,,0820.5,5.01,0.00,25.9,24.2,00.0,34.7,27.8,18.0,0000.0,0002.72,0005.20,0002.12
2022-10-27 10:59:00,,0820.5,5.01,0.00,25.9,24.2,00.0,34.7,27.8,18.1,0000.0,0002.67,0005.00,0002.12
